Location: Ferintosh
(52.7647°N, 112.9692°W)
Time: 10:48:27
(UTC+00:00)

S-56A Canister/Altair - Pass Details

Date: 30 May 2024
Orbit: 637 x 2489 km, 38.9° (Epoch: 22 June)

Event Time Altitude Azimuth Distance (km) Brightness Sun altitude
Rises 10:27:21 0° 211° (SSW) 6,134 - -6.0°
Exits shadow 10:29:34 - 207° (SSW) 5,673 11.3 -5.8°
Reaches altitude 10° 10:32:13 10° 201° (SSW) 5,140 11.1 -5.5°
Maximum altitude 10:43:37 28° 151° (SSE) 3,631 10.8 -4.3°
Drops below altitude 10° 10:53:26 10° 100° (E) 4,409 12.0 -3.3°
Sets 10:57:10 0° 89° (E) 5,151 12.6 -2.8°
